COSMOS 2191

Satellite information

Favourite Embed

Satellite Type and Status

PAYLOADIN ORBIT

Key statistics

Satellite COSMOS 2191 at a glance.

Uptime

12204

Days in orbit

Revolutions

≈ 12.4

Per day

Orbit

LEO

Low Earth Orbit

Inclination

74.0

Latest

Satellite identification and parameters

Extended collection of information and parameters for COSMOS 2191.

Object identification

Identified? True

Debris? False

Object name: COSMOS 2191

International designator: 1992-030E

Object number (NORAD): 21980

Object ID (CCSDS): 21980

Country: COMMONWEALTH OF INDEPENDENT STATES (CIS)

Current information (Y/N): Y

RCS size: MEDIUM

Orbital parameters

Period: 115.703 minutes

Inclination: 74.0066 deg

SMA: 7865.432 km

Apoapsis: 1501.118 km

Periapsis: 1473.476 km

RAAN: 35.6541 deg

Eccentricy: 0.0017572

Argument of periapsis: 101.4652 deg

Mean anomaly: 15.5088 deg

Mean motion: 12.44568783 rev/day

Mean motion (dot): -0.00000015 rev/day2

B* drag term: 0.0000023382 1/REarth

Two-line elements (TLE)

Creation date: Oct. 31, 2025, 11:06 p.m.

Reference frame: TEME

Reference center: EARTH

Epoch: Oct. 31, 2025, 5:50 p.m. UTC

TLE line 0: 0 COSMOS 2191

TLE line 1: 1 21980U 92030E 25304.74311176 -.00000015 00000-0 23382-5 0 9998

TLE line 2: 2 21980 74.0066 35.6541 0017572 101.4652 15.5088 12.44568783517749

Live tracking on map

Real-time ground track for satellite COSMOS 2191.

In-orbit conjunctions

There are no conjunctions computed for COSMOS 2191, at the moment. Check back to stay up to date, as we update our databases every day.

Go to all conjunctions

Associated space launch

Military communications satellites

COSMOS 2191 was lifted into orbit during the mission ‘Kosmos-3M | Strela-1M 361-368’, on board a Kosmos-3M space rocket.

The launch took place on June 3, 1992, 12:50 a.m. from 133/3 (133L).

For more information about the launch, click the button.

Launch to space Kosmos-3M | Strela-1M 361-368
Kosmos-3M | Strela-1M 361-368

Agency: N/A

Status: Launch Successful

Launch date: June 3, 1992, 12:50 a.m. UTC

Rocket: Kosmos-3M

Launch pad: 133/3 (133L)

Location: Plesetsk Cosmodrome, Russian Federation

...

Latest news about this satellite

There are no fresh news available about this satellite. Check back as we update our databases every day.


Newsletter sign-up

Weekly statistics, charts and insights to help you stay on top of the space industry.